Home Latest Filings Latest Buys Latest Sells Institutions Derivatives Hot Buys Data Screener Email Alerts Insider Charts
SECURITY INVESTORS LLC
- As of  04/02/20, 08:35:25 AM:   142 Insider Transactions.

Email this page to a friend.

Buy/Sell* 1 Yr Return** Filed Date Subject Symbol Pct Owned Details
S 2013-02-13 16:17:08.0 POWER ONE INC PWER 3.26% view
S 2013-02-13 16:15:00.0 GeoEye GEOY 2.37% view
S 2013-02-13 16:12:51.0 CABELAS INC CAB 1.43% view
S 2013-02-13 16:11:24.0 BIMINI CAPITAL MANAGEMENT BMNM 3.76% view
S 2012-12-10 12:29:24.0 USEC INC USU 2.32% view
S 2012-12-10 12:27:37.0 TREX CO INC TREX 0.02% view
S 2012-10-09 15:04:06.0 GeoEye GEOY 6.59% view
S 2012-05-10 16:51:03.0 THERMOENERGY CORP TMEN 8.46% view
S 2012-04-10 15:34:33.0 SMITH & WESSON HOLDING CORP SWHC 1.54% view
B -58.99% 2012-02-13 14:28:55.0 USEC INC USU 7.34% view
B -19.34% 2012-01-31 15:34:04.0 ICF International ICFI 5.5% view
B 10.37% 2012-01-31 15:33:48.0 Fifth Street Finance Corp FSC 3.3% view
B 65.45% 2012-01-31 15:33:48.0 GeoEye GEOY 12.26% view
B 96.78% 2012-01-31 15:33:33.0 CABELAS INC CAB 5.08% view
B 77.35% 2012-01-31 15:33:18.0 BROWN SHOE CO INC BWS 7.84% view
B -29.99% 2012-01-31 15:33:03.0 IXYS CORP IXYS 17.72% view
B 96.68% 2012-01-31 15:32:48.0 LANDEC CORP LNDC 9.48% view
B -4.05% 2012-01-31 15:32:33.0 Maidenform Brands MFB 7.34% view
B -54.55% 2012-01-31 15:32:18.0 MAXWELL TECHNOLOGIES INC MXWL 13.33% view
B -10.46% 2012-01-31 15:31:48.0 NAVIGANT CONSULTING INC NCI 7.49% view
S 2012-01-31 15:31:18.0 POWER ONE INC PWER 5.01% view
B 67.82% 2012-01-31 15:31:03.0 SAIA INC SAIA 9.27% view
B -16.51% 2012-01-31 15:30:49.0 SYMMETRICOM INC SYMM 9.26% view
B 70.43% 2012-01-31 15:30:48.0 SMITH & WESSON HOLDING CORP SWHC 7.77% view
S 2012-01-31 15:30:36.0 TREX CO INC TREX 5.16% view
B 13.17% 2012-01-31 15:29:50.0 HANOVER INSURANCE GROUP THG 6.4% view
S 2012-01-31 15:29:48.0 BIMINI CAPITAL MANAGEMENT BMNM 6.14% view
B -43.28% 2012-01-31 15:29:18.0 GOODRICH PETROLEUM CORP GDP 6.75% view
B 37.43% 2012-01-31 15:29:18.0 Aegion Corp AEGN 5.62% view
B 2011-12-09 12:45:27.0 FORCE PROTECTION INC FRPT 2.15% view
S 2011-10-11 11:24:29.0 REHABCARE GROUP INC RHB 0.0% view
S 2011-10-11 11:22:51.0 GLOBAL INDUSTRIES LTD GLBL 0.114% view
B -76.40% 2011-02-14 19:13:23.0 USEC INC USU 5.08% view
B 7.80% 2011-02-14 19:12:58.0 SYMMETRICOM INC SYMM 9.0% view
B 2011-02-14 19:12:04.0 REHABCARE GROUP INC RHB 5.93% view
S 2011-02-14 19:11:43.0 POWER ONE INC PWER 5.25% view
B 41.15% 2011-02-14 19:11:26.0 NAVIGANT CONSULTING INC NCI 7.4% view
S 2011-02-14 19:10:10.0 Maidenform Brands MFB 5.93% view
B 8.14% 2011-02-14 19:10:10.0 MAXWELL TECHNOLOGIES INC MXWL 12.66% view
B 2011-02-14 19:07:25.0 GLOBAL INDUSTRIES LTD GLBL 8.95% view
B 4.71% 2011-02-14 18:47:12.0 TREX CO INC TREX 5.87% view
B 40.27% 2011-02-14 18:46:37.0 SMITH & WESSON HOLDING CORP SWHC 7.43% view
B 14.17% 2011-02-14 18:46:18.0 SAIA INC SAIA 8.64% view
B 5.62% 2011-02-14 18:44:34.0 LANDEC CORP LNDC 9.33% view
B 4.22% 2011-02-14 18:43:38.0 IXYS CORP IXYS 17.61% view
S 2011-02-14 18:43:04.0 INSITUFORM TECHNOLOGIES INC INSU 4.61% view
B 16.42% 2011-02-14 18:18:24.0 ICF International ICFI 5.18% view
S 2011-02-14 18:18:12.0 GeoEye GEOY 8.4% view
S 2011-02-14 16:30:52.0 BIMINI CAPITAL MANAGEMENT BMNM 7.31% view
B -37.50% 2010-09-10 16:58:44.0 THERMOENERGY CORP TMEN 23.09% view
S 2010-09-10 16:56:47.0 POWER ONE INC PWER 5.5% view
S 2010-09-10 16:55:07.0 EVERGREEN ENERGY INC EEE 0.0% view
B 2010-02-12 15:30:31.0 TREX CO INC TWP 5.29% view
S 2010-02-12 15:28:31.0 THERMOENERGY CORP TMEN 6.75% view
B -7.31% 2010-02-12 15:26:56.0 SYMMETRICOM INC SYMM 8.33% view
B 23.50% 2010-02-12 15:25:04.0 SAIA INC SAIA 7.55% view
S 2010-02-12 15:23:35.0 QUIXOTE CORP QUIX 9.94% view
B 126.53% 2010-02-12 15:21:57.0 POWER ONE INC PWER 11.73% view
S 2010-02-12 15:20:10.0 PLATO LEARNING INC TUTR 5.49% view
B 15.81% 2010-02-12 15:18:43.0 MAXWELL TECHNOLOGIES INC MXWL 10.68% view
B 68.36% 2010-02-12 15:09:05.0 Maidenform Brands MFB 6.14% view
B 5.59% 2010-02-12 15:06:52.0 LANDEC CORP LNDC 6.92% view
B 42.11% 2010-02-12 15:05:14.0 IXYS CORP IXYS 15.63% view
B 40.31% 2010-02-12 15:03:12.0 INSITUFORM TECHNOLOGIES INC INSU 5.17% view
B 17.35% 2010-02-12 15:01:31.0 GLOBAL INDUSTRIES LTD GLBL 6.73% view
B 2010-02-12 14:59:59.0 GEVITY HR INC gvhr 0.0% view
B 72.83% 2010-02-12 14:58:18.0 GeoEye GEOY 8.84% view
S 2010-02-12 14:52:03.0 EVERGREEN ENERGY INC EEE 5.45% view
B 2010-02-12 14:50:24.0 EF Johnson Technologies EFJI 5.26% view
B 13.69% 2010-02-12 14:48:33.0 BROWN SHOE CO INC BWS 5.15% view
S 2010-02-12 14:44:14.0 BIMINI CAPITAL MANAGEMENT BMNM 7.59% view
B 2010-02-12 14:42:10.0 ASPECT MEDICAL SYSTEMS INC ASPM 0.0% view
B 167.36% 2009-03-10 14:50:07.0 QUIXOTE CORP Quix 10.09% view
B 14.41% 2008-09-05 18:10:14.0 MAXWELL TECHNOLOGIES INC MXWL 10.39% view
B -37.33% 2008-08-06 16:49:32.0 POWER ONE INC PWER 10.01% view
S 2008-08-06 16:49:12.0 CLAYTON HOLDINGS INC CLAY 0.0% view
S 2008-07-07 15:15:20.0 MERIX CORP MERX 2.77% view
S 2008-02-14 14:16:39.0 UQM TECHNOLOGIES INC UQM 4.16% view
B 8.06% 2008-02-14 14:16:14.0 SYMMETRICOM INC SYMM 5.69% view
S 2008-02-14 14:15:49.0 SHAW GROUP INC SGR 0.08% view
B -73.82% 2008-02-14 14:15:23.0 QUIXOTE CORP Quix 7.86% view
B -56.17% 2008-02-14 14:14:58.0 POWER ONE INC PWER 7.97% view
B -53.75% 2008-02-14 14:14:29.0 PLATO LEARNING INC TUTR 5.65% view
B 2008-02-14 14:14:03.0 NORTH POINTE HOLDINGS CORP NPTE 8.94% view
S 2008-02-14 14:13:38.0 MERIX CORP MERX 7.47% view
S 2008-02-14 14:13:12.0 MAXWELL TECHNOLOGIES INC MXWL 9.95% view
B 2008-02-14 14:12:49.0 KMG America CORP KMA 12.0% view
B 5.71% 2008-02-14 14:12:25.0 IXYS CORP IXYS 10.76% view
B -80.00% 2008-02-14 14:11:59.0 HydroGen CORP HYDG 15.29% view
S 2008-02-14 14:11:41.0 EVERGREEN ENERGY INC EEE 8.65% view
S 2008-02-14 14:11:13.0 EPIQ SYSTEMS INC EPIQ 3.64% view
B -13.87% 2008-02-14 14:10:56.0 EFJ INC EFJI 5.02% view
B 2008-02-14 14:10:32.0 CLAYTON HOLDINGS INC CLAY 10.42% view
S 2008-02-14 14:10:08.0 BIMINI CAPITAL MANAGEMENT OPX 9.33% view
B 24.45% 2007-07-09 17:24:47.0 IXYS CORP IXYS 10.26% view
B -80.94% 2007-04-10 16:46:12.0 EVERGREEN ENERGY INC EEE 10.61% view
B -41.38% 2007-02-12 11:23:47.0 UQM TECHNOLOGIES INC UQM 6.07% view
B 66.75% 2007-02-12 11:23:22.0 SHAW GROUP INC SGR 5.22% view
B -67.02% 2007-02-12 11:23:01.0 POWER ONE INC PWER 7.85% view
B -35.25% 2007-02-12 11:22:40.0 PLATO LEARNING INC TUTR 5.64% view
B 2007-02-12 11:22:15.0 Opteum Inc OPX 9.44% view
B 43.43% 2007-02-12 11:21:51.0 NORTH POINTE HOLDINGS CORP NPTE 8.68% view
B -70.10% 2007-02-12 11:21:23.0 MERIX CORP MERX 10.87% view
B -41.39% 2007-02-12 11:20:51.0 MAXWELL TECHNOLOGIES INC MXWL 12.14% view
B 2007-02-12 11:20:28.0 KMG America CORP KMA 6.15% view
B -16.32% 2007-02-12 11:20:02.0 IXYS CORP IXYS 9.73% view
B -42.38% 2007-02-12 11:19:42.0 HydroGen CORP HYDG 15.24% view
B -72.75% 2007-02-12 11:19:16.0 EVERGREEN ENERGY INC EEE 9.92% view
S 2007-02-12 11:18:50.0 EPIQ SYSTEMS INC EPIQ 5.65% view
S 2006-08-10 00:00:00.0 ELECTRIC CITY CORP ELC 1.06% view
S 2006-06-07 00:00:00.0 HydroGen CORP CSTC 13.38% view
B 2006-02-15 00:00:00.0 BIMINI MORTGAGE MANAGEMENT INC BMM 6.94% view
S 2006-02-15 00:00:00.0 HydroGen CORP CSTC 20.6% view
B 16.25% 2006-02-15 00:00:00.0 POWER ONE INC PWER 7.53% view
S 2006-02-15 00:00:00.0 IXYS CORP SYXI 7.04% view
B 4.82% 2006-02-15 00:00:00.0 UQM TECHNOLOGIES INC UQM 5.53% view
B -6.01% 2006-02-15 00:00:00.0 SHAW GROUP INC SGR 5.11% view
S 2006-02-15 00:00:00.0 KFX INC KFX 8.88% view
S 2006-02-15 00:00:00.0 MAXWELL TECHNOLOGIES INC MXWL 11.31% view
B 0.55% 2006-02-15 00:00:00.0 MERIX CORP MERX 7.41% view
B -71.32% 2005-08-05 00:00:00.0 THERMOENERGY CORP TMEN 18.63% view
B 2005-08-04 00:00:00.0 CHISTE CORP CSTC 21.1% view
B 2.38% 2005-02-14 00:00:00.0 IXYS CORP SYXI 7.1% view
B -18.23% 2005-02-14 00:00:00.0 HOLLIS EDEN PHARMACEUTICALS INC HEPH 6.15% view
B 31.55% 2005-02-14 00:00:00.0 KFX INC KFX 9.24% view
B 89.70% 2005-02-14 00:00:00.0 MAXWELL TECHNOLOGIES INC MXWL 11.95% view
S 2005-02-14 00:00:00.0 ELECTRIC CITY CORP ELC 14.61% view
B 2004-04-06 00:00:00.0 ELECTRIC CITY CORP ELC 14.66% view
S 2004-02-13 00:00:00.0 RENTECH INC RTK 4.8% view
B -45.77% 2004-02-13 00:00:00.0 HOLLIS EDEN PHARMACEUTICALS INC HEPH 6.13% view
S 2004-02-13 00:00:00.0 KFX INC KFX 7.61% view
B -6.76% 2004-02-13 00:00:00.0 MAXWELL TECHNOLOGIES INC MXWL 11.64% view
B 267.50% 2003-04-10 00:00:00.0 KFX INC KFX 10.58% view
B 70.18% 2003-02-14 00:00:00.0 RENTECH INC RTK 5.53% view
S 2003-02-14 00:00:00.0 MAXWELL TECHNOLOGIES INC MXWL 11.19% view
B -46.60% 2002-02-12 00:00:00.0 MAXWELL TECHNOLOGIES INC MXWL 12.74% view
B 2002-02-12 00:00:00.0 SYLVAN INC SYLN 5.1% view
B -29.04% 2002-02-12 00:00:00.0 CALLON PETROLEUM CO CPE 16.81% view
B -60.60% 2001-08-07 00:00:00.0 CALLON PETROLEUM CO CPE 15.06% view
B -1.34% 2001-02-14 00:00:00.0 EPIQ SYSTEMS INC EPIQ 6.3% view
B -34.21% 2000-12-22 00:00:00.0 MAXWELL TECHNOLOGIES INC MXWL 10.14% view
B 20.12% 2000-02-14 00:00:00.0 MAXWELL TECHNOLOGIES INC MXWL 8.59% view
* Institutions do not report transaction buy/sell types directly. To help members better understand the transactions, this column is filled by InsiderCow's best-effort interpretations.
** Since most institutions are long investors, only returns for long transactions are shown here.